Sparta, IL

4:32 AM CST on November 15, 2019 (GMT -0600)
Sparta Community-Hunter

Weather History for KSAR - October, 2019

Change the Weather History Date:

Tuesday, October 22, 2019

  Actual Average (WUND) Record (WUND)
Temperature  
Mean Temperature 54 °F -  
Max Temperature 61 °F - - (-1)
Min Temperature 46 °F - - (-1)
Degree Days  
Heating Degree Days 12    
Growing Degree Days 4 (Base 50)    
Moisture  
Dew Point 37 °F    
Average Humidity 56    
Maximum Humidity 78    
Minimum Humidity 28    
Precipitation  
Precipitation 0.00 in - - ()
Sea Level Pressure  
Sea Level Pressure 29.91 in    
Wind  
Wind Speed 9 mph ()    
Max Wind Speed 21 mph    
Max Gust Speed 28 mph    
Visibility 10.0 miles    
Events      
Averages and records for this station are not official NWS values.
T = Trace of Precipitation, MM = Missing Value Source: Averaged Metar Reports

Daily Weather History Graph

Daily Weather History Graph

Search for Another Location

Airport or City:

Astronomy

Oct. 22, 2019 Rise Set
Actual Time 7:14 AM CDT 6:11 PM CDT
Civil Twilight 6:47 AM CDT 6:38 PM CDT
Nautical Twilight 6:16 AM CDT 7:09 PM CDT
Astronomical Twilight 5:46 AM CDT 7:39 PM CDT
Moon 12:31 AM CDT (10/22) 3:14 PM CDT (10/22)
Length of Visible Light 11h 51m
Length of Day
10h 57m
Last Quarter, 37% of the Moon is Illuminated
Oct 22
Last Quarter
Oct 27
New
Nov 4
First Quarter
Nov 12
Full
Nov 19
Last Quarter

Hourly Weather History & Observations

Time (CDT) Temp. Windchill Dew Point Humidity Pressure Visibility Wind Dir Wind Speed Gust Speed Precip Events Conditions
12:15 AM 53.6 °F - 41.4 °F 63% 29.80 in 10.0 mi SW 8.1 mph - N/A   Clear
12:35 AM 53.1 °F - 41.2 °F 64% 29.81 in 10.0 mi SW 8.1 mph - N/A   Clear
12:55 AM 52.3 °F - 41.0 °F 65% 29.80 in 10.0 mi SW 8.1 mph - N/A   Clear
1:15 AM 52.7 °F - 40.5 °F 63% 29.79 in 10.0 mi WSW 8.1 mph - N/A   Clear
1:35 AM 52.7 °F - 40.3 °F 63% 29.79 in 10.0 mi WSW 10.4 mph - N/A   Clear
1:55 AM 53.6 °F - 39.9 °F 60% 29.79 in 10.0 mi WSW 8.1 mph 19.6 mph N/A   Clear
2:15 AM 52.3 °F - 40.1 °F 63% 29.80 in 10.0 mi West 5.8 mph - N/A   Clear
2:35 AM 51.1 °F - 40.1 °F 66% 29.80 in 10.0 mi WSW 5.8 mph - N/A   Clear
2:55 AM 51.8 °F - 40.1 °F 64% 29.80 in 10.0 mi WSW 8.1 mph - N/A   Clear
3:15 AM 51.1 °F - 40.1 °F 66% 29.80 in 10.0 mi West 9.2 mph - N/A   Clear
3:35 AM 51.3 °F - 39.7 °F 65% 29.80 in 10.0 mi West 9.2 mph 18.4 mph N/A   Clear
3:55 AM 50.7 °F - 39.7 °F 66% 29.81 in 10.0 mi West 11.5 mph 17.3 mph N/A   Clear
4:15 AM 50.2 °F - 39.7 °F 67% 29.81 in 10.0 mi West 9.2 mph - N/A   Clear
4:35 AM 50.0 °F - 40.1 °F 69% 29.81 in 10.0 mi WSW 9.2 mph - N/A   Clear
4:55 AM 50.0 °F - 39.7 °F 68% 29.81 in 10.0 mi WSW 9.2 mph 16.1 mph N/A   Clear
5:15 AM 49.3 °F - 40.1 °F 71% 29.82 in 10.0 mi WSW 6.9 mph - N/A   Clear
5:35 AM 49.1 °F - 40.1 °F 71% 29.83 in 10.0 mi WSW 9.2 mph - N/A   Clear
5:55 AM 49.1 °F - 40.1 °F 71% 29.84 in 10.0 mi West 8.1 mph 18.4 mph N/A   Clear
6:15 AM 49.1 °F - 40.1 °F 71% 29.85 in 10.0 mi West 10.4 mph - N/A   Clear
6:35 AM 48.2 °F - 40.1 °F 74% 29.86 in 10.0 mi WSW 8.1 mph - N/A   Clear
6:55 AM 48.0 °F - 40.1 °F 74% 29.87 in 10.0 mi WSW 6.9 mph - N/A   Clear
7:15 AM 46.9 °F - 40.1 °F 77% 29.87 in 10.0 mi SW 5.8 mph - N/A   Clear
7:35 AM 46.8 °F - 40.3 °F 78% 29.87 in 10.0 mi WSW 5.8 mph - N/A   Clear
7:55 AM 47.3 °F - 40.5 °F 77% 29.88 in 10.0 mi WSW 5.8 mph - N/A   Clear
8:15 AM 48.0 °F - 40.6 °F 76% 29.88 in 10.0 mi WSW 6.9 mph - N/A   Clear
8:35 AM 48.4 °F - 41.0 °F 76% 29.89 in 10.0 mi SW 9.2 mph - N/A   Clear
8:55 AM 49.3 °F - 41.2 °F 74% 29.90 in 10.0 mi WSW 10.4 mph 16.1 mph N/A   Clear
9:15 AM 50.0 °F - 41.0 °F 71% 29.91 in 10.0 mi WSW 12.7 mph 21.9 mph N/A   Clear
9:35 AM 50.7 °F - 40.6 °F 68% 29.91 in 10.0 mi West 15.0 mph 25.3 mph N/A   Clear
9:55 AM 51.3 °F - 40.3 °F 66% 29.92 in 10.0 mi West 13.8 mph 23.0 mph N/A   Scattered Clouds
10:15 AM 52.2 °F - 40.1 °F 64% 29.92 in 10.0 mi West 13.8 mph 21.9 mph N/A   Scattered Clouds
10:55 AM 53.8 °F - 39.9 °F 59% 29.93 in 10.0 mi West 11.5 mph 21.9 mph N/A   Clear
11:15 AM 54.0 °F - 39.6 °F 58% 29.94 in 10.0 mi West 17.3 mph 24.2 mph N/A   Clear
11:35 AM 55.2 °F - 40.1 °F 57% 29.94 in 10.0 mi West 13.8 mph 23.0 mph N/A   Clear
11:55 AM 55.9 °F - 39.7 °F 55% 29.94 in 10.0 mi West 12.7 mph 24.2 mph N/A   Clear
12:15 PM 56.8 °F - 39.9 °F 53% 29.94 in 10.0 mi West 17.3 mph 25.3 mph N/A   Clear
12:35 PM 56.8 °F - 39.0 °F 51% 29.94 in 10.0 mi West 12.7 mph 24.2 mph N/A   Clear
12:55 PM 57.9 °F - 39.6 °F 50% 29.93 in 10.0 mi SW 12.7 mph 18.4 mph N/A   Scattered Clouds
1:15 PM 58.1 °F - 39.6 °F 50% 29.93 in 10.0 mi West 12.7 mph 18.4 mph N/A   Clear
1:35 PM 59.2 °F - 38.8 °F 47% 29.93 in 10.0 mi WSW 16.1 mph 20.7 mph N/A   Scattered Clouds
1:55 PM 59.9 °F - 38.8 °F 46% 29.92 in 10.0 mi WSW 13.8 mph 20.7 mph N/A   Clear
2:15 PM 60.4 °F - 38.1 °F 44% 29.91 in 10.0 mi WSW 16.1 mph 24.2 mph N/A   Clear
2:35 PM 60.4 °F - 36.7 °F 41% 29.91 in 10.0 mi West 10.4 mph 21.9 mph N/A   Clear
2:55 PM 60.8 °F - 34.0 °F 37% 29.91 in 10.0 mi West 20.7 mph 26.5 mph N/A   Clear
3:15 PM 61.2 °F - 32.9 °F 35% 29.92 in 10.0 mi West 16.1 mph 23.0 mph N/A   Clear
3:35 PM 60.8 °F - 30.7 °F 32% 29.93 in 10.0 mi West 17.3 mph 27.6 mph N/A   Clear
3:55 PM 61.2 °F - 30.7 °F 32% 29.93 in 10.0 mi West 16.1 mph 24.2 mph N/A   Clear
4:15 PM 60.8 °F - 28.4 °F 29% 29.93 in 10.0 mi West 11.5 mph 24.2 mph N/A   Clear
4:35 PM 60.6 °F - 27.5 °F 28% 29.93 in 10.0 mi West 16.1 mph 23.0 mph N/A   Clear
4:55 PM 60.3 °F - 27.7 °F 29% 29.94 in 10.0 mi West 10.4 mph 23.0 mph N/A   Clear
5:15 PM 59.7 °F - 27.9 °F 30% 29.94 in 10.0 mi West 13.8 mph 19.6 mph N/A   Clear
5:35 PM 59.0 °F - 27.7 °F 30% 29.95 in 10.0 mi West 11.5 mph 21.9 mph N/A   Clear
5:55 PM 57.9 °F - 28.2 °F 32% 29.95 in 10.0 mi West 10.4 mph 19.6 mph N/A   Clear
6:15 PM 56.3 °F - 29.1 °F 35% 29.96 in 10.0 mi West 8.1 mph - N/A   Clear
6:35 PM 54.9 °F - 30.0 °F 39% 29.97 in 10.0 mi West 5.8 mph - N/A   Clear
6:55 PM 53.2 °F - 30.9 °F 43% 29.98 in 10.0 mi West 4.6 mph - N/A   Clear
7:15 PM 52.3 °F - 31.5 °F 45% 29.98 in 10.0 mi West 4.6 mph - N/A   Clear
7:35 PM 52.0 °F - 31.8 °F 46% 29.99 in 10.0 mi West 5.8 mph - N/A   Clear
7:55 PM 52.7 °F - 31.8 °F 45% 30.00 in 10.0 mi West 9.2 mph - N/A   Clear
8:15 PM 52.0 °F - 32.0 °F 47% 30.00 in 10.0 mi West 8.1 mph - N/A   Clear
8:35 PM 51.8 °F - 32.0 °F 47% 30.01 in 10.0 mi West 6.9 mph - N/A   Clear
8:55 PM 51.1 °F - 32.4 °F 49% 30.01 in 10.0 mi West 5.8 mph - N/A   Clear
9:15 PM 50.7 °F - 32.7 °F 50% 30.02 in 10.0 mi West 5.8 mph - N/A   Clear
9:35 PM 50.4 °F - 32.9 °F 51% 30.03 in 10.0 mi West 5.8 mph - N/A   Clear
9:55 PM 49.5 °F - 33.3 °F 54% 30.03 in 10.0 mi West 3.5 mph - N/A   Clear
10:15 PM 48.9 °F - 33.4 °F 55% 30.04 in 10.0 mi West 4.6 mph - N/A   Clear
10:35 PM 48.4 °F - 33.4 °F 56% 30.05 in 10.0 mi Calm Calm - N/A   Clear
10:55 PM 48.0 °F - 33.8 °F 58% 30.04 in 10.0 mi Calm Calm - N/A   Clear
11:20 PM 47.5 °F - 33.4 °F 58% 30.04 in 10.0 mi WSW 3.5 mph - N/A   Clear
11:35 PM 47.3 °F - 33.8 °F 59% 30.04 in 10.0 mi WSW 3.5 mph - N/A   Clear
11:55 PM 46.4 °F 44.3 °F 34.0 °F 62% 30.05 in 10.0 mi SW 4.6 mph - N/A   Clear